Wind_Speed
3 3 3 3 3 4 4 4 4 5 5 6 6 6 7 7 7 7 7 7 8 8 9 9 10 10 11 11 11 10 10 10 11 11 11 11 11 12 12 12 12 12 13
4 4 4 4 3 4 5 5 5 5 5 5 5 6 6 7 7 6 7 7 8 9 9 9 9 9 9 9 10 10 11 11 12 12 11 11 12 12 12 12 13 13 13
4 5 5 4 4 5 5 5 5 6 6 6 6 6 6 7 7 8 9 9 9 9 9 9 9 9 9 9 9 10 11 11 11 12 12 12 12 12 12 12 13 13 14
5 5 6 6 6 6 6 6 6 7 7 7 7 7 7 7 8 8 9 9 9 10 10 10 9 10 10 10 10 10 10 11 11 11 12 12 12 13 13 14 14 14 14
6 6 6 6 6 7 7 7 7 7 7 7 7 7 8 8 8 9 9 9 10 10 10 10 10 10 11 11 10 11 11 11 11 11 12 12 13 13 14 14 14 15 15
7 7 7 7 7 7 7 8 8 8 8 8 8 9 9 9 9 9 9 9 10 10 10 10 11 11 12 12 11 12 12 12 12 12 13 14 14 14 15 15 15 15 16
7 7 7 8 7 7 8 8 8 9 9 9 9 9 10 10 9 9 10 10 10 10 10 11 11 12 12 12 12 12 13 13 14 14 15 15 16 16 16 16 16 16 16
8 8 9 8 8 8 8 9 9 10 10 10 10 10 10 10 10 10 10 10 10 10 11 11 11 12 13 13 14 14 14 14 15 15 16 16 17 17 16 16 16 16 16
10 10 10 9 9 8 9 9 10 11 11 11 11 11 11 11 11 11 11 11 11 11 12 12 13 13 14 14 15 15 15 16 16 16 16 17 17 17 16 16 16 16 16
10 10 10 10 9 9 9 9 10 10 11 11 11 11 12 12 12 12 12 12 13 13 13 13 14 15 15 15 15 16 16 16 17 17 17 17 16 16 16 16 16 17 17
11 11 11 10 10 10 10 10 10 10 10 10 11 11 12 13 13 13 13 14 14 14 14 15 15 15 16 16 16 17 17 17 18 17 17 17 16 16 17 17 17 18 18
12 11 11 11 11 11 11 11 11 11 11 11 12 12 13 14 14 15 15 15 15 15 15 15 16 17 17 17 18 18 18 17 17 17 17 18 17 17 18 18 19 19 19
12 12 12 12 12 13 13 12 13 13 12 13 13 14 15 15 15 16 16 16 16 16 16 17 18 18 19 19 18 18 17 17 18 18 18 18 18 18 19 20 20 20 20
14 14 14 14 14 14 15 15 14 14 14 15 15 16 16 17 17 17 17 17 18 18 19 19 19 20 20 19 19 19 18 18 19 18 18 19 19 20 20 21 21 21 21
16 16 16 16 16 16 16 16 17 17 16 16 17 17 18 18 18 18 18 18 19 20 20 20 20 20 20 20 20 20 20 20 20 20 20 21 21 22 22 22 22 22 21
18 17 17 17 18 18 18 18 18 18 18 18 18 19 19 20 20 20 19 20 20 21 21 21 21 21 21 21 21 21 21 21 21 21 21 22 22 22 22 22 22 22 21
19 19 19 19 19 19 19 20 20 20 20 20 20 20 21 21 22 22 21 21 21 21 22 22 22 22 22 22 22 22 22 22 22 22 22 22 22 22 21 21 21 21 21
21 21 22 21 21 20 20 20 20 21 22 22 23 23 23 23 23 23 23 23 23 23 23 23 23 23 23 23 23 23 23 23 23 22 22 22 22 22 22 22 22 22 22
22 22 23 24 23 22 22 22 22 22 22 23 24 24 25 25 25 25 25 25 25 25 25 25 25 25 25 24 24 24 25 24 24 23 23 23 23 23 24 24 24 24 24
23 23 24 25 25 24 24 24 24 24 24 24 25 25 25 25 25 25 26 26 26 26 26 26 26 25 25 25 25 25 25 25 25 24 23 24 25 25 25 25 25 25 25
25 25 25 25 26 26 26 26 26 26 26 27 26 27 27 27 26 26 27 27 27 27 27 27 27 27 27 27 27 26 27 26 26 25 25 25 26 26 26 26 26 26 27
27 26 26 27 27 27 28 28 29 28 29 29 28 28 28 28 28 28 28 28 28 28 29 29 28 28 28 28 28 28 27 27 27 27 27 27 27 27 27 27 27 28 28
29 29 29 29 29 29 29 29 29 30 30 29 29 29 29 29 29 29 29 29 29 30 30 30 29 29 30 30 30 29 28 28 28 28 29 29 28 28 28 28 28 29 29
30 30 30 30 31 31 32 30 30 30 31 30 30 30 30 30 30 30 30 31 31 31 31 31 30 30 31 31 31 30 30 30 30 29 29 29 29 29 29 29 29 30 30
31 31 31 32 32 32 32 32 32 32 32 32 31 31 31 31 31 31 32 32 32 32 31 31 31 32 31 31 31 32 31 31 30 30 29 29 29 29 30 30 30 30 30
32 32 32 33 33 33 33 33 33 33 33 33 32 32 32 31 31 32 32 32 32 32 32 32 32 32 32 32 32 33 33 32 31 30 30 30 30 30 30 30 30 31 31
Wind_Direction
268 267 268 277 278 279 287 296 296 290 286 286 287 284 281 282 281 283 285 286 284 283 284 284 280 280 280 278 277 278 277 274 273 274 275 278 278 281 283 281 279 279 279
276 271 266 267 270 278 288 292 295 297 296 295 295 286 282 284 286 287 288 286 284 283 281 285 284 282 285 287 286 282 280 279 275 273 274 276 279 282 283 281 280 280 279
265 266 261 261 268 279 287 284 288 292 293 291 292 292 286 283 283 283 288 287 284 284 284 283 283 287 290 289 288 288 283 278 277 275 275 276 277 280 282 283 281 281 280
264 268 266 265 264 271 277 279 278 283 288 290 290 292 290 285 285 287 289 290 289 289 288 285 285 287 288 287 284 286 285 279 277 277 278 279 282 283 284 284 283 282 282
269 272 274 275 271 271 277 278 279 281 287 290 291 291 293 290 287 290 293 293 291 291 291 290 290 289 289 289 285 288 286 282 279 278 279 282 284 285 283 283 282 282 282
276 276 280 283 281 278 281 281 282 284 286 286 287 287 290 291 290 291 295 297 296 294 292 292 291 290 290 290 287 287 288 286 282 281 281 282 284 285 283 282 282 282 282
279 281 282 284 280 280 282 281 282 283 284 282 284 284 286 290 293 295 296 297 296 296 295 293 293 291 291 291 288 287 287 285 284 284 283 283 283 284 284 283 282 282 282
282 281 280 282 282 282 282 283 283 283 281 280 283 286 287 288 291 295 296 296 294 294 294 296 296 295 293 292 291 289 287 286 286 286 285 286 286 287 286 285 284 284 284
284 285 283 283 281 283 283 284 281 281 279 280 283 287 287 287 289 291 293 294 295 295 296 296 297 296 295 293 292 293 289 286 286 286 287 288 286 287 285 285 285 286 285
282 280 283 282 281 282 285 286 284 282 279 278 281 286 288 288 289 290 291 294 295 296 297 298 296 295 294 294 293 292 290 287 287 287 287 287 285 287 286 286 285 287 287
283 280 281 281 281 281 283 286 287 285 279 278 281 283 286 289 289 289 291 292 292 293 295 296 296 297 298 295 294 292 291 290 289 286 285 285 285 286 287 286 286 287 287
282 282 283 283 281 279 282 285 286 287 281 277 279 281 284 288 290 290 288 288 290 291 291 293 295 297 298 297 296 293 290 288 287 286 285 285 285 286 286 287 288 287 286
282 281 283 283 282 280 279 282 284 283 283 282 282 282 284 287 288 290 290 288 289 290 291 293 295 296 296 296 295 293 291 290 288 286 285 285 284 285 286 287 288 287 286
280 278 279 279 280 280 278 280 281 281 283 284 283 285 285 286 288 291 291 289 289 290 291 292 294 295 295 295 294 293 292 290 288 287 286 287 286 286 286 287 287 286 285
278 276 276 276 277 279 278 279 280 280 281 282 283 285 285 286 286 288 290 288 289 290 290 291 293 294 294 293 293 293 291 290 288 287 287 287 288 288 288 288 287 285 284
277 275 274 275 277 278 277 277 278 277 278 280 283 285 284 284 284 285 288 289 288 289 290 290 291 292 292 291 291 292 291 289 287 287 287 287 288 289 289 289 286 284 284
275 276 276 275 276 277 277 277 277 276 277 279 281 283 283 283 284 285 286 286 288 288 289 290 291 291 291 291 291 291 291 289 288 288 288 289 288 289 289 289 286 284 283
275 275 275 274 274 274 275 277 278 278 278 278 280 280 280 282 283 282 282 283 285 287 288 289 290 289 289 291 291 290 289 289 289 288 288 288 287 287 288 288 286 284 282
275 276 276 274 274 273 274 276 278 278 277 278 279 279 280 281 282 282 280 282 283 285 287 288 288 287 287 288 290 290 289 289 288 287 287 287 287 287 288 288 287 285 283
276 276 275 275 273 272 273 273 275 276 276 277 278 279 281 282 282 282 282 282 282 284 286 287 288 287 286 287 287 289 289 289 286 286 286 286 287 288 288 288 288 287 285
278 279 278 277 275 274 273 273 273 274 275 275 276 277 279 281 282 283 283 282 281 283 285 285 285 284 284 285 286 287 288 286 284 284 285 285 286 288 288 288 288 288 286
277 278 279 278 276 275 274 274 273 274 275 276 276 277 278 280 281 281 282 282 281 282 283 284 284 283 283 284 285 286 288 285 283 283 283 284 285 287 287 287 287 288 287
276 278 279 278 277 276 275 275 273 274 275 275 276 277 278 279 280 282 282 282 281 282 283 283 283 282 283 283 283 285 286 286 284 283 283 283 284 285 285 286 287 287 288
276 277 278 279 278 277 276 275 275 274 275 276 276 277 278 278 279 280 281 281 281 283 283 283 283 282 283 283 283 283 284 284 284 283 284 284 284 284 286 287 286 286 287
277 277 278 280 280 278 276 275 275 274 275 276 277 277 278 280 280 280 280 281 282 283 283 282 283 283 283 283 283 282 282 282 282 281 282 283 283 284 285 286 286 287 287
276 277 279 280 279 279 278 277 276 276 276 276 277 278 279 281 282 281 282 283 283 282 282 281 282 283 283 283 282 282 282 281 280 280 281 282 283 284 285 286 286 287 288
Height
5857 5856 5856 5856 5856 5856 5856 5855 5855 5855 5854 5854 5853 5853 5853 5853 5852 5852 5851 5851 5851 5850 5850 5849 5849 5848 5848 5847 5846 5846 5846 5846 5846 5846 5845 5845 5845 5844 5844 5844 5843 5843 5843
5855 5855 5855 5855 5855 5855 5855 5854 5854 5854 5853 5853 5852 5852 5851 5851 5851 5850 5850 5850 5849 5848 5848 5847 5846 5846 5845 5844 5844 5844 5843 5843 5843 5843 5843 5843 5843 5842 5841 5841 5840 5840 5840
5854 5854 5854 5854 5853 5853 5853 5853 5853 5852 5852 5851 5851 5851 5850 5850 5849 5849 5848 5848 5847 5846 5846 5845 5844 5844 5843 5842 5842 5841 5841 5840 5840 5840 5840 5840 5839 5839 5838 5838 5837 5837 5836
5852 5852 5852 5852 5852 5852 5852 5851 5851 5851 5850 5850 5849 5849 5848 5848 5847 5847 5846 5845 5845 5844 5843 5843 5842 5841 5841 5840 5839 5839 5838 5838 5837 5837 5837 5837 5836 5836 5835 5834 5834 5833 5832
5851 5851 5851 5850 5850 5850 5850 5849 5849 5849 5848 5848 5847 5847 5847 5846 5845 5845 5844 5843 5842 5842 5841 5840 5840 5839 5838 5838 5837 5836 5835 5835 5835 5834 5834 5833 5833 5832 5832 5831 5830 5829 5829
5850 5849 5849 5849 5848 5848 5848 5847 5847 5847 5846 5846 5845 5845 5845 5844 5843 5842 5842 5841 5840 5839 5839 5838 5837 5836 5836 5835 5834 5833 5832 5832 5831 5831 5830 5830 5829 5828 5828 5827 5826 5825 5825
5848 5848 5847 5847 5846 5846 5846 5845 5845 5844 5844 5844 5843 5843 5842 5842 5841 5840 5839 5839 5838 5837 5836 5835 5834 5833 5833 5832 5831 5830 5829 5828 5827 5827 5826 5825 5824 5824 5823 5822 5822 5821 5820
5846 5845 5845 5845 5844 5844 5843 5843 5842 5842 5841 5841 5841 5840 5839 5839 5838 5837 5837 5836 5835 5834 5833 5832 5831 5830 5829 5828 5827 5826 5825 5824 5823 5822 5822 5821 5820 5819 5818 5818 5817 5816 5816
5844 5843 5843 5842 5842 5841 5841 5840 5840 5839 5839 5838 5838 5837 5837 5836 5835 5834 5834 5833 5832 5831 5830 5829 5828 5827 5826 5825 5823 5822 5821 5820 5819 5818 5817 5816 5815 5814 5813 5813 5812 5812 5811
5841 5840 5840 5840 5839 5839 5838 5838 5837 5837 5836 5836 5835 5834 5834 5833 5832 5832 5831 5830 5829 5828 5827 5826 5824 5823 5822 5821 5819 5818 5817 5815 5814 5813 5812 5812 5811 5810 5809 5808 5807 5807 5806
5838 5837 5837 5837 5836 5836 5835 5835 5834 5834 5833 5833 5832 5831 5831 5830 5829 5828 5827 5826 5825 5824 5823 5822 5821 5819 5818 5816 5815 5814 5812 5811 5810 5809 5808 5807 5806 5805 5804 5803 5802 5801 5801
5835 5834 5834 5834 5833 5833 5833 5832 5831 5831 5830 5829 5829 5828 5827 5826 5825 5825 5824 5823 5822 5821 5819 5818 5817 5815 5814 5812 5810 5809 5807 5806 5805 5804 5803 5802 5801 5800 5799 5798 5797 5796 5795
5831 5831 5831 5830 5830 5830 5829 5829 5828 5827 5826 5826 5825 5824 5823 5822 5821 5821 5820 5818 5817 5816 5815 5814 5812 5811 5809 5807 5805 5804 5802 5801 5800 5799 5798 5797 5796 5795 5794 5792 5791 5790 5789
5827 5827 5826 5826 5826 5826 5825 5825 5824 5823 5822 5822 5821 5820 5819 5818 5817 5816 5815 5814 5813 5811 5810 5809 5807 5806 5804 5802 5800 5799 5797 5796 5795 5794 5792 5791 5790 5789 5788 5786 5785 5784 5783
5823 5822 5822 5821 5821 5821 5820 5820 5819 5818 5817 5817 5816 5815 5814 5813 5812 5811 5810 5809 5808 5806 5805 5803 5802 5800 5799 5797 5795 5794 5792 5791 5789 5788 5787 5785 5784 5782 5781 5780 5778 5777 5776
5818 5817 5817 5816 5816 5815 5815 5814 5814 5813 5812 5811 5811 5810 5809 5808 5807 5806 5804 5803 5802 5800 5799 5798 5796 5795 5793 5791 5789 5788 5786 5785 5783 5782 5781 5779 5777 5776 5774 5773 5771 5770 5769
5812 5811 5811 5811 5810 5809 5809 5808 5807 5807 5806 5805 5805 5804 5803 5802 5801 5799 5798 5797 5796 5794 5793 5791 5790 5788 5786 5785 5783 5782 5780 5779 5777 5776 5774 5773 5771 5769 5768 5766 5765 5764 5763
5806 5805 5805 5804 5804 5803 5802 5802 5801 5800 5800 5799 5798 5797 5796 5795 5794 5793 5791 5790 5789 5788 5786 5785 5783 5781 5780 5778 5776 5775 5773 5772 5770 5769 5767 5766 5764 5763 5761 5760 5758 5757 5756
5799 5799 5798 5798 5797 5796 5796 5795 5794 5794 5793 5792 5791 5790 5789 5788 5787 5785 5784 5783 5781 5780 5779 5777 5776 5774 5773 5771 5769 5768 5766 5765 5763 5761 5760 5759 5757 5756 5754 5753 5751 5750 5748
5791 5791 5790 5790 5789 5789 5788 5788 5787 5786 5786 5785 5784 5783 5782 5780 5779 5778 5776 5775 5773 5772 5771 5769 5768 5766 5765 5763 5762 5760 5759 5757 5756 5754 5753 5751 5750 5748 5746 5745 5743 5742 5741
5784 5783 5783 5782 5782 5781 5781 5780 5779 5778 5778 5777 5776 5775 5774 5773 5771 5770 5768 5767 5765 5764 5762 5761 5760 5758 5757 5755 5753 5752 5750 5749 5748 5746 5745 5743 5742 5740 5738 5737 5735 5734 5732
5776 5775 5775 5774 5773 5772 5772 5771 5771 5770 5769 5768 5768 5767 5765 5764 5763 5762 5760 5758 5756 5755 5754 5752 5751 5749 5748 5746 5745 5743 5742 5740 5739 5738 5737 5735 5734 5732 5730 5729 5727 5725 5723
5768 5767 5766 5765 5765 5764 5763 5762 5762 5761 5760 5759 5759 5758 5757 5755 5754 5753 5751 5750 5748 5746 5745 5743 5742 5741 5739 5738 5736 5735 5733 5731 5730 5729 5728 5726 5725 5723 5722 5720 5718 5716 5714
5759 5758 5757 5756 5755 5754 5753 5753 5752 5752 5751 5750 5750 5749 5748 5746 5745 5743 5742 5740 5739 5737 5735 5734 5733 5732 5730 5729 5727 5725 5724 5722 5721 5720 5719 5717 5716 5714 5713 5711 5709 5707 5705
5750 5749 5748 5747 5745 5744 5744 5743 5742 5742 5741 5741 5740 5739 5738 5737 5735 5734 5732 5731 5729 5727 5726 5725 5723 5722 5721 5719 5717 5715 5714 5713 5712 5710 5709 5708 5707 5705 5703 5702 5700 5698 5696
5740 5739 5738 5736 5735 5734 5734 5733 5732 5732 5731 5731 5730 5729 5728 5727 5725 5724 5722 5721 5719 5718 5716 5714 5713 5712 5710 5709 5707 5705 5704 5703 5702 5701 5700 5699 5697 5696 5694 5692 5690 5688 5686